COSMOS 2251 DEB, 34472

Orbit data source: Space-Track

COSMOS 2251 DEB, 34472 is space debris in LEO originally from a launch on Wed, 16 Jun 1993 UTC launched from the Plesetsk Missile And Space Complex (PKMTR). The debris from Iridium 33, an American commercial communications satellite, has been tracked extensively since its accidental collision with the defunct Russian satellite Cosmos 2251 in 2009. This event, occurring at high speed in low Earth orbit (LEO), generated thousands of pieces of space debris, significantly increasing the risk of further collisions. The Iridium 33 debris cloud has impacted space traffic management and orbital debris mitigation strategies, making it a subject of ongoing study in space situational awareness.

Loading next visibility...
Identifier
34472, 1993-036TR
Orbit
LEO
Country
Flag of CISCIS
Related business
Manufacturer
Unknown
Mission
Spacecraft
Bus & Motor
Unknown
Mass
Unknown
Launch date (UTC)
1993-06-16 (33 years ago)
Launch vehicle
Unknown
Launch site
Plesetsk Missile And Space Complex (PKMTR)
Object type
Payload
Rocket body
Debris
Shape & HBR
Unknown shape, 0.1 m
Radar Cross Section
Small (<0.1 m²)

Expand to show TLE details & history
Last TLE update: 16 hours ago

TLE from 16 hours ago
0 COSMOS 2251 DEB
1 34472U 93036TR  26145.12571099  .00001553  00000-0  12030-2 0  9995
2 34472  74.0821 189.3119 0330853 281.9276  74.4931 13.70781473859655
Epoch: 2026-05-25T03:01Z
TLE epoch observation values (Epoch: 2026-05-25T03:01:01.429Z)
Latitude
-0.00009°
Longitude
-98.66207°
Altitude
941.653 km
Speed
7.41 km/s
True Right ascension
12h 37m 14s
True Declination
0° 00' 00"
Sunlit
Object was in full shadow at epoch
Visualization orbit readout
Latitude
Unknown
Longitude
Unknown
Altitude
Unknown
Speed
Unknown
Apparent Right ascension
Unknown
Apparent Declination
Unknown
Sunlit
N/A
Visualization observer readout
Local Sidereal Time
04:09:21
Azimuth
Unknown
Elevation
Unknown
Doppler factor
Unknown
Orbital elements
Apogee altitude
1,238.38 km
Perigee altitude
750.531 km
Semi-major axis
7,372.593 km
Eccentricity
0.03309
Inclination
74.0821°
RAAN
189.3119°
Arg. of periapsis
281.9276°
True anomaly
78.18465°
Mean anomaly
74.4931°
Eccentric anomaly
76.33509°
Mean motion
3.42857 °/min
Orbital period
105 mins
BSTAR
0.001203

Documentation

Showing up to 5 results
|